Location: Starry Hill Observatory
(46.8582°N, 122.3590°W)
Time: 09:39:08
(UTC-07:00)

ISS - Visible Passes

Search period start: 24 July 2016 00:00
Search period end: 03 August 2016 00:00
Orbit: 401 x 404 km, 51.6° (Epoch: 24 July)

Date Brightness Start Highest point End Pass type
(mag) Time Alt. Az. Time Alt. Az. Time Alt. Az.
24 Jul -0.5 00:21:07 11° ENE 00:21:07 11° ENE 00:21:16 10° ENE visible
24 Jul -1.8 01:53:42 28° NW 01:54:41 35° N 01:57:44 10° ENE visible
24 Jul -2.0 03:28:26 10° WNW 03:31:34 41° NNE 03:34:42 10° E visible
25 Jul -1.9 01:02:17 36° NNE 01:02:17 36° NNE 01:04:45 10° ENE visible
25 Jul -1.7 02:35:28 10° WNW 02:38:31 35° N 02:41:34 10° ENE visible
25 Jul -3.4 04:11:56 10° WNW 04:15:12 89° SSW 04:18:28 10° ESE visible
25 Jul -2.6 22:29:22 10° SSW 22:32:10 31° SSE 22:32:10 31° SSE visible
26 Jul -1.4 00:10:23 23° NE 00:10:23 23° NE 00:11:50 10° ENE visible
26 Jul -1.6 01:42:51 13° WNW 01:45:27 33° N 01:48:27 10° ENE visible
26 Jul -2.8 03:19:01 10° WNW 03:22:16 60° NNE 03:25:29 10° ESE visible
26 Jul -2.4 04:55:42 10° W 04:58:32 27° SW 05:01:19 10° SSE visible
26 Jul -1.9 21:37:13 10° S 21:39:33 18° SE 21:41:53 10° E visible
26 Jul -3.4 23:12:23 10° WSW 23:15:38 82° NNW 23:18:54 10° ENE visible
27 Jul -1.7 00:49:20 10° WNW 00:52:21 34° N 00:55:24 10° ENE visible
27 Jul -2.2 02:26:05 10° WNW 02:29:14 44° NNE 02:32:24 10° E visible
27 Jul -3.1 04:02:34 10° WNW 04:05:43 46° SW 04:08:51 10° SE visible
27 Jul -3.4 22:19:30 10° SW 22:22:44 62° SSE 22:25:57 10° ENE visible
27 Jul -2.0 23:56:11 10° W 23:59:17 39° NNW 00:02:24 10° ENE visible
28 Jul -1.4 01:33:07 10° WNW 01:41:16 - E 01:35:08 28° NNW visible
28 Jul -2.0 03:14:23 28° SE 03:14:23 28° SE 03:16:05 10° ESE visible
28 Jul -1.5 04:47:29 11° WSW 04:48:49 14° SW 04:50:33 10° SSW visible
28 Jul -2.7 21:26:52 10° SSW 21:29:52 36° SE 21:32:54 10° ENE visible
28 Jul -2.5 23:03:03 10° W 23:06:15 51° NNW 23:09:27 10° ENE visible
29 Jul -1.6 00:40:05 10° WNW 00:43:06 33° N 00:43:21 33° NNE visible
29 Jul -3.1 22:10:01 10° WSW 22:13:16 73° NNW 22:16:32 10° ENE visible
29 Jul -1.6 23:47:00 10° WNW 23:50:01 34° N 23:51:55 18° NE visible
30 Jul -0.7 01:23:42 10° WNW 01:24:29 16° NW 01:24:29 16° NW visible
30 Jul -3.4 21:17:04 10° SW 21:20:19 72° SSE 21:23:34 10° ENE visible
30 Jul -1.8 22:53:51 10° W 22:56:56 38° N 23:00:01 10° ENE visible
31 Jul -1.6 00:30:44 10° WNW 00:33:08 33° NNW 00:33:08 33° NNW visible
31 Jul -2.3 22:00:42 10° W 22:03:52 47° NNW 22:07:03 10° ENE visible
31 Jul -1.7 23:37:42 10° WNW 23:40:44 34° N 23:41:50 26° NE visible
01 Aug -0.3 01:14:13 10° WNW 01:14:24 11° WNW 01:14:24 11° WNW visible
01 Aug -1.7 22:44:37 10° WNW 22:47:38 33° N 22:50:32 11° ENE visible
02 Aug -1.4 00:21:17 10° WNW 00:23:07 29° NW 00:23:07 29° NW visible
02 Aug -1.8 21:51:29 10° WNW 21:54:32 36° N 21:57:36 10° ENE visible
02 Aug -2.2 23:28:19 10° WNW 23:31:26 40° NNE 23:31:50 38° NNE visible
